Change the Weather History Date:

Wednesday, January 9, 2013

  Actual Average Record
Temperature  
Mean Temperature 82 °F -  
Max Temperature 101 °F - - ()
Min Temperature 64 °F - - ()
Cooling Degree Days 18    
Growing Degree Days 32 (Base 50)    
Moisture  
Dew Point 54 °F    
Average Humidity 44    
Maximum Humidity 100    
Minimum Humidity 9    
Precipitation  
Precipitation 0.00 in - - ()
Sea Level Pressure  
Sea Level Pressure 29.77 in    
Wind  
Wind Speed 12 mph ()    
Max Wind Speed 21 mph    
Max Gust Speed -    
T = Trace of Precipitation, MM = Missing Value Source: Averaged Metar Reports

Daily Weather History Graph

Daily Weather History Graph

Search for Another Location

Airport or City:

Trip Planner

Search our weather history database for the weather conditions in past years. The results will help you decide how hot, cold, wet, or windy it might be!

Date:

Astronomy

Jan. 09, 2013 Rise Set
Actual Time 4:33 AM AWST 6:35 PM AWST
Civil Twilight 4:06 AM AWST 7:02 PM AWST
Nautical Twilight 3:33 AM AWST 7:35 PM AWST
Astronomical Twilight 2:57 AM AWST 8:10 PM AWST
Moon 1:40 AM AWST (1/9) 3:56 PM AWST (1/9)
Length of Visible Light 14h 55m
Length of Day
14h 01m
Waning Crescent, 10% of the Moon is Illuminated
Jan 9
Waning Crescent
Jan 12
New
Jan 19
First Quarter
Jan 27
Full
Feb 3
Last Quarter

Hourly Weather History & Observations

Time (AWST) Temp. Heat Index Dew Point Humidity Pressure Visibility Wind Dir Wind Speed Gust Speed Precip Events Conditions
12:00 AM 69 °F - 55 °F 51% 29.87 in - ESE 9.2 mph - -  
12:00 AM 69.8 °F - 55.4 °F 60% 29.89 in - ESE 9.2 mph - N/A   Unknown
1:00 AM 68.0 °F - 59.0 °F 73% 29.86 in - ESE 10.4 mph - N/A   Unknown
2:00 AM 68 °F - 66 °F 90% 29.84 in - ESE 15.0 mph - -  
2:00 AM 68.0 °F - 66.2 °F 94% 29.86 in - ESE 15.0 mph - N/A   Unknown
3:00 AM 66 °F - 66 °F 99% 29.84 in - ESE 16.1 mph - -  
3:00 AM 66.2 °F - 66.2 °F 100% 29.86 in - ESE 16.1 mph - N/A   Unknown
4:00 AM 66.2 °F - 64.4 °F 94% 29.86 in - East 10.4 mph - N/A   Unknown
5:00 AM 66 °F - 65 °F 96% 29.86 in - East 8.1 mph - -  
5:00 AM 66.2 °F - 64.4 °F 94% 29.86 in - East 8.1 mph - N/A   Unknown
6:00 AM 69 °F - 64 °F 80% 29.86 in - East 12.7 mph - -  
6:00 AM 69.8 °F - 64.4 °F 83% 29.86 in - East 12.7 mph - N/A   Unknown
7:00 AM 73.4 °F - 60.8 °F 65% 29.86 in - ENE 13.8 mph - N/A   Unknown
8:00 AM 76 °F - 58 °F 44% 29.85 in - East 12.7 mph - -  
8:00 AM 77.0 °F - 59.0 °F 54% 29.86 in - East 12.7 mph - N/A   Unknown
9:00 AM 83 °F - 54 °F 27% 29.83 in - East 15.0 mph - -  
9:00 AM 82.4 °F 81.4 °F 53.6 °F 37% 29.83 in - East 15.0 mph - N/A   Unknown
10:00 AM 87.8 °F 85.7 °F 53.6 °F 31% 29.80 in - East 13.8 mph - N/A   Unknown
11:00 AM 90 °F - 52 °F 18% 29.79 in - East 13.8 mph - -  
11:00 AM 89.6 °F - 51.8 °F 27% 29.80 in - East 13.8 mph - N/A   Unknown
12:00 PM 93 °F - 51 °F 15% 29.76 in - East 10.4 mph - -  
12:00 PM 93.2 °F - 51.8 °F 24% 29.77 in - East 10.4 mph - N/A   Unknown
1:00 PM 96.8 °F - 48.2 °F 19% 29.74 in - East 10.4 mph - N/A   Unknown
2:00 PM 97 °F - 47 °F 10% 29.69 in - ESE 10.4 mph - -  
2:00 PM 96.8 °F - 46.4 °F 18% 29.71 in - ESE 10.4 mph - N/A   Unknown
3:00 PM 100 °F - 46 °F 9% 29.66 in - SE 11.5 mph - -  
3:00 PM 100.4 °F - 46.4 °F 16% 29.68 in - SE 11.5 mph - N/A   Unknown
4:00 PM 100.4 °F - 44.6 °F 15% 29.65 in - East 12.7 mph - N/A   Unknown
5:00 PM 97 °F - 51 °F 13% 29.65 in - ESE 20.7 mph - -  
5:00 PM 96.8 °F - 50.0 °F 20% 29.65 in - ESE 20.7 mph - N/A   Unknown
6:00 PM 93 °F - 51 °F 15% 29.68 in - East 20.7 mph - -  
6:00 PM 93.2 °F - 51.8 °F 24% 29.68 in - East 20.7 mph - N/A   Unknown
7:00 PM 87.8 °F - 48.2 °F 25% 29.71 in - East 19.6 mph - N/A   Unknown
8:00 PM 82 °F - 48 °F 20% 29.71 in - East 20.7 mph - -  
8:00 PM 82.4 °F - 48.2 °F 30% 29.71 in - East 20.7 mph - N/A   Unknown
9:00 PM 78 °F - 48 °F 24% 29.70 in - East 18.4 mph - -  
9:00 PM 78.8 °F - 48.2 °F 34% 29.71 in - East 18.4 mph - N/A   Unknown
10:00 PM 75.2 °F - 46.4 °F 36% 29.71 in - East 16.1 mph - N/A   Unknown
11:00 PM 74 °F - 50 °F 32% 29.67 in - ENE 12.7 mph - -  
11:00 PM 73.4 °F - 50.0 °F 44% 29.68 in - ENE 12.7 mph - N/A   Unknown